Location: Unspecified
(0.0000°N, 0.0000°E)
Time: 06:42:41
(UTC+02:00)

ADEOS II - Visible Passes

Search period start: 19 April 2014 00:00
Search period end: 29 April 2014 00:00
Orbit: 801 x 804 km, 98.3° (Epoch: 17 April)

Date Brightness Start Highest point End Pass type
(mag) Time Alt. Az. Time Alt. Az. Time Alt. Az.
19 Apr 4.6 20:59:39 10° SSW 21:03:35 22° WSW 21:07:31 10° NW visible
20 Apr 3.4 20:32:48 10° S 20:37:46 44° WSW 20:42:44 10° NNW visible
21 Apr 4.1 07:30:25 10° NE 07:35:02 32° ESE 07:39:40 10° SSE visible
22 Apr 4.9 07:06:10 10° ENE 07:09:14 16° ESE 07:12:17 10° SE visible
22 Apr 5.2 21:24:07 10° WSW 21:25:34 11° WSW 21:27:01 10° W visible
23 Apr 4.5 20:55:38 10° SSW 20:59:46 24° WSW 21:03:53 10° NW visible
24 Apr 3.2 20:28:54 10° S 20:33:57 48° WSW 20:38:58 10° NNW visible
25 Apr 4.3 07:26:43 10° NE 07:31:12 29° ESE 07:35:43 10° SSE visible
26 Apr 5.0 07:02:40 10° ENE 07:05:24 14° ESE 07:08:07 10° SE visible
26 Apr 5.0 21:19:40 10° SW 21:21:44 12° WSW 21:23:49 10° W visible
27 Apr 4.3 20:51:38 10° SSW 20:55:56 26° WSW 21:00:13 10° NW visible
28 Apr 3.0 20:25:00 10° S 20:30:06 52° WSW 20:35:11 10° NNW visible
